| time (UTC) | temp C | wind direction | speed KPH | gust KPH | rain 1hr cm | rain 24hr cm | rain mn cm | humidity % | barometer mb |
| 20260905101553 | 11 | 0 | 0.0 | 1.6 | 0.00 | 0.18 | 0.00 | 92 | 1017.1 |
| 20260905100106 | 11 | 166 | 1.6 | 6.4 | 0.00 | 0.18 | 0.00 | 92 | 1017.0 |
| 20260905094553 | 11 | 0 | 0.0 | 0.0 | 0.00 | 0.18 | 0.00 | 91 | 1017.0 |
| 20260905093059 | 11 | 0 | 0.0 | 0.0 | 0.00 | 0.18 | 0.00 | 91 | 1017.0 |
| 20260905091600 | 11 | 0 | 0.0 | 0.0 | 0.00 | 0.18 | 0.00 | 91 | 1016.9 |
| 20260905090047 | 11 | 0 | 0.0 | 1.6 | 0.00 | 0.18 | 0.00 | 91 | 1016.8 |
| 20260905084553 | 12 | 172 | 1.6 | 3.2 | 0.00 | 0.18 | 0.00 | 91 | 1016.8 |
| 20260905083051 | 12 | 0 | 0.0 | 3.2 | 0.00 | 0.18 | 0.00 | 90 | 1016.8 |
| 20260905081559 | 12 | 0 | 0.0 | 1.6 | 0.00 | 0.18 | 0.00 | 90 | 1016.6 |
| 20260905080057 | 12 | 0 | 0.0 | 1.6 | 0.00 | 0.18 | 0.00 | 91 | 1016.6 |
| 20260905074544 | 12 | 0 | 0.0 | 0.0 | 0.00 | 0.20 | 0.00 | 90 | 1016.7 |
| 20260905073058 | 12 | 0 | 0.0 | 0.0 | 0.00 | 0.20 | 0.00 | 90 | 1016.7 |
| 20260905071556 | 12 | 0 | 0.0 | 0.0 | 0.00 | 0.20 | 0.00 | 90 | 1016.5 |
| 20260905070056 | 12 | 0 | 0.0 | 1.6 | 0.00 | 0.20 | 0.00 | 90 | 1016.5 |
| 20260905064555 | 12 | 172 | 1.6 | 4.8 | 0.00 | 0.20 | 0.20 | 89 | 1016.4 |
| 20260905063101 | 12 | 0 | 0.0 | 1.6 | 0.00 | 0.20 | 0.20 | 89 | 1016.2 |
| 20260905061610 | 12 | 0 | 0.0 | 4.8 | 0.00 | 0.20 | 0.20 | 90 | 1016.1 |
| 20260905060056 | 12 | 0 | 0.0 | 4.8 | 0.00 | 0.20 | 0.20 | 91 | 1016.0 |
| 20260905054547 | 12 | 130 | 1.6 | 4.8 | 0.00 | 0.20 | 0.20 | 91 | 1016.0 |
| 20260905053101 | 12 | 150 | 0.0 | 4.8 | 0.00 | 0.20 | 0.20 | 92 | 1015.9 |
| 20260905051550 | 12 | 153 | 0.0 | 4.8 | 0.00 | 0.20 | 0.20 | 92 | 1015.9 |
| 20260905050058 | 12 | 167 | 3.2 | 6.4 | 0.00 | 0.20 | 0.20 | 91 | 1015.8 |
| 20260905044550 | 12 | 0 | 0.0 | 4.8 | 0.00 | 0.20 | 0.20 | 91 | 1015.8 |
| 20260905043055 | 12 | 0 | 0.0 | 0.0 | 0.00 | 0.20 | 0.20 | 91 | 1015.9 |
| 20260905041554 | 12 | 0 | 0.0 | 0.0 | 0.00 | 0.20 | 0.20 | 91 | 1015.8 |
| 20260905040050 | 13 | 0 | 0.0 | 0.0 | 0.00 | 0.20 | 0.20 | 91 | 1015.7 |
| 20260905034554 | 13 | 0 | 0.0 | 0.0 | 0.00 | 0.20 | 0.20 | 91 | 1015.5 |
| 20260905033053 | 13 | 0 | 0.0 | 0.0 | 0.00 | 0.20 | 0.20 | 90 | 1015.4 |
| 20260905031552 | 13 | 0 | 0.0 | 0.0 | 0.00 | 0.20 | 0.20 | 90 | 1015.3 |
| 20260905030058 | 13 | 0 | 0.0 | 0.0 | 0.00 | 0.20 | 0.20 | 89 | 1015.1 |
| 20260905024555 | 13 | 0 | 0.0 | 0.0 | 0.00 | 0.20 | 0.20 | 88 | 1015.1 |
| 20260905023054 | 13 | 0 | 0.0 | 0.0 | 0.00 | 0.20 | 0.20 | 87 | 1015.2 |
| 20260905021549 | 14 | 0 | 0.0 | 0.0 | 0.00 | 0.20 | 0.20 | 86 | 1015.2 |
| 20260905020106 | 14 | 0 | 0.0 | 0.0 | 0.00 | 0.20 | 0.20 | 84 | 1015.0 |
| 20260905014553 | 14 | 0 | 0.0 | 0.0 | 0.00 | 0.20 | 0.20 | 84 | 1014.8 |
| 20260905013047 | 15 | 0 | 0.0 | 1.6 | 0.00 | 0.20 | 0.20 | 81 | 1014.8 |
| 20260905011545 | 15 | 0 | 0.0 | 1.6 | 0.00 | 0.20 | 0.20 | 77 | 1014.6 |
| 20260905010104 | 15 | 0 | 0.0 | 3.2 | 0.00 | 0.20 | 0.20 | 77 | 1014.5 |
| 20260905004611 | 15 | 96 | 0.0 | 3.2 | 0.00 | 0.23 | 0.20 | 78 | 1014.5 |
| 20260905003052 | 15 | 86 | 3.2 | 6.4 | 0.00 | 0.23 | 0.20 | 81 | 1014.5 |
| 20260905001554 | 15 | 94 | 3.2 | 11.3 | 0.00 | 0.23 | 0.20 | 85 | 1014.5 |
| 20260905000047 | 15 | 81 | 4.8 | 8.0 | 0.03 | 0.23 | 0.20 | 84 | 1014.4 |
| 20260904234557 | 15 | 121 | 1.6 | 4.8 | 0.03 | 0.38 | 0.20 | 84 | 1014.5 |
| 20260904233057 | 15 | 0 | 0.0 | 1.6 | 0.03 | 0.38 | 0.20 | 85 | 1014.4 |
| 20260904231548 | 15 | 0 | 0.0 | 1.6 | 0.03 | 0.38 | 0.20 | 83 | 1014.4 |
| 20260904230048 | 15 | 85 | 3.2 | 6.4 | 0.03 | 0.36 | 0.18 | 84 | 1014.4 |
| 20260904224553 | 15 | 175 | 1.6 | 3.2 | 0.03 | 0.36 | 0.18 | 82 | 1014.3 |
| 20260904223051 | 15 | 227 | 1.6 | 9.7 | 0.03 | 0.36 | 0.18 | 82 | 1014.4 |
| 20260904221558 | 15 | 181 | 3.2 | 11.3 | 0.03 | 0.36 | 0.18 | 79 | 1014.5 |
| 20260904220050 | 16 | 97 | 4.8 | 9.7 | 0.00 | 0.33 | 0.15 | 75 | 1014.3 |
| 20260904214604 | 17 | 256 | 4.8 | 20.9 | 0.00 | 0.33 | 0.15 | 70 | 1014.1 |
| 20260904213049 | 18 | 149 | 3.2 | 6.4 | 0.00 | 0.33 | 0.15 | 59 | 1013.5 |
| 20260904211605 | 18 | 0 | 0.0 | 6.4 | 0.00 | 0.33 | 0.15 | 58 | 1013.2 |
| 20260904210057 | 19 | 115 | 1.6 | 9.7 | 0.00 | 0.33 | 0.15 | 53 | 1013.0 |
| 20260904204549 | 19 | 86 | 4.8 | 9.7 | 0.00 | 0.33 | 0.15 | 55 | 1012.9 |
| 20260904203101 | 20 | 220 | 3.2 | 8.0 | 0.00 | 0.33 | 0.15 | 55 | 1012.7 |
| 20260904201559 | 20 | 280 | 3.2 | 12.9 | 0.00 | 0.33 | 0.15 | 53 | 1012.8 |
| 20260904194557 | 18 | 95 | 0.0 | 4.8 | 0.00 | 0.33 | 0.15 | 64 | 1013.1 |
| 20260904193053 | 18 | 0 | 0.0 | 0.0 | 0.00 | 0.33 | 0.15 | 69 | 1013.2 |
| 20260904191553 | 17 | 0 | 0.0 | 1.6 | 0.00 | 0.33 | 0.15 | 69 | 1013.3 |
| 20260904190056 | 17 | 53 | 1.6 | 4.8 | 0.00 | 0.33 | 0.15 | 67 | 1013.4 |
| 20260904184552 | 17 | 0 | 0.0 | 3.2 | 0.00 | 0.33 | 0.15 | 64 | 1013.3 |
| 20260904183058 | 18 | 34 | 0.0 | 4.8 | 0.00 | 0.33 | 0.15 | 70 | 1013.3 |
| 20260904181555 | 17 | 0 | 1.6 | 9.7 | 0.00 | 0.33 | 0.15 | 63 | 1013.2 |
| 20260904180052 | 17 | 330 | 3.2 | 8.0 | 0.00 | 0.33 | 0.15 | 69 | 1013.2 |
| 20260904174605 | 16 | 69 | 3.2 | 11.3 | 0.00 | 0.33 | 0.15 | 80 | 1013.2 |
| 20260904173101 | 16 | 0 | 0.0 | 0.0 | 0.00 | 0.33 | 0.15 | 82 | 1013.1 |
| 20260904171600 | 15 | 0 | 0.0 | 0.0 | 0.00 | 0.33 | 0.15 | 89 | 1013.0 |
| 20260904170054 | 13 | 0 | 0.0 | 0.0 | 0.00 | 0.33 | 0.15 | 90 | 1013.1 |
| 20260904164552 | 13 | 0 | 0.0 | 0.0 | 0.00 | 0.33 | 0.15 | 90 | 1013.1 |
| 20260904163059 | 12 | 0 | 0.0 | 0.0 | 0.00 | 0.33 | 0.15 | 89 | 1013.1 |
| 20260904161553 | 12 | 0 | 0.0 | 0.0 | 0.00 | 0.33 | 0.15 | 90 | 1012.9 |
| 20260904160059 | 12 | 0 | 0.0 | 0.0 | 0.00 | 0.33 | 0.15 | 92 | 1013.1 |
| 20260904154600 | 12 | 0 | 0.0 | 4.8 | 0.00 | 0.38 | 0.15 | 92 | 1013.1 |
| 20260904153138 | 11 | 142 | 0.0 | 8.0 | 0.00 | 0.38 | 0.15 | 92 | 1012.9 |
| 20260904151601 | 11 | 175 | 3.2 | 8.0 | 0.00 | 0.38 | 0.15 | 93 | 1012.8 |
| 20260904150053 | 11 | 0 | 0.0 | 1.6 | 0.00 | 0.38 | 0.15 | 93 | 1012.5 |
| 20260904144555 | 11 | 0 | 0.0 | 3.2 | 0.00 | 0.43 | 0.15 | 93 | 1012.5 |
| 20260904143051 | 11 | 0 | 0.0 | 3.2 | 0.00 | 0.43 | 0.15 | 93 | 1012.5 |
| 20260904141601 | 11 | 194 | 1.6 | 6.4 | 0.00 | 0.43 | 0.15 | 93 | 1012.3 |
| 20260904140057 | 11 | 0 | 0.0 | 4.8 | 0.00 | 0.43 | 0.15 | 93 | 1012.0 |
| 20260904134555 | 11 | 0 | 0.0 | 0.0 | 0.00 | 0.43 | 0.15 | 93 | 1012.0 |
| 20260904133058 | 11 | 0 | 0.0 | 0.0 | 0.03 | 0.43 | 0.15 | 93 | 1011.8 |
| 20260904131616 | 11 | 0 | 0.0 | 0.0 | 0.05 | 0.43 | 0.15 | 93 | 1011.8 |
| 20260904130052 | 11 | 0 | 1.6 | 4.8 | 0.05 | 0.43 | 0.15 | 93 | 1011.5 |
| 20260904124553 | 11 | 0 | 0.0 | 0.0 | 0.08 | 0.43 | 0.15 | 92 | 1011.3 |
| 20260904123055 | 11 | 0 | 0.0 | 0.0 | 0.08 | 0.41 | 0.13 | 92 | 1011.4 |
| 20260904121549 | 11 | 0 | 0.0 | 0.0 | 0.08 | 0.38 | 0.10 | 92 | 1011.3 |
| 20260904120052 | 11 | 0 | 0.0 | 0.0 | 0.08 | 0.38 | 0.10 | 92 | 1011.5 |
| 20260904114555 | 11 | 181 | 0.0 | 3.2 | 0.05 | 0.36 | 0.08 | 92 | 1011.3 |
| 20260904113059 | 11 | 172 | 1.6 | 4.8 | 0.03 | 0.33 | 0.05 | 92 | 1011.2 |
| 20260904111553 | 11 | 135 | 0.0 | 3.2 | 0.00 | 0.30 | 0.03 | 92 | 1011.1 |
| 20260904110053 | 11 | 165 | 1.6 | 6.4 | 0.00 | 0.30 | 0.03 | 92 | 1011.1 |
| 20260904104602 | 11 | 0 | 0.0 | 3.2 | 0.00 | 0.30 | 0.03 | 93 | 1011.0 |
| 20260904103103 | 11 | 0 | 1.6 | 4.8 | 0.00 | 0.30 | 0.03 | 93 | 1010.9 |